GSAT0206 (PRN E30)

Last updated on Jan. 23, 2021, 7:31 a.m. UTC

1 40890U 15045B   21022.35854690  .00000002  00000-0  00000-0 0  9995
2 40890  55.9847 276.0671 0004084   4.8982 355.1732  1.70474892 33427
UTC
Height (km)
Latitude
Longitude
Inclination
Orbital Period
UTC large
Height (km)
Speed (km/s)
/
Latitude / Longitude
Inclination (degrees)
Orbital Period (minutes)
Azimuth
Elevation
Range (km)
Doppler Factor
iOS Compass Heading
iOS Angle

Next 30 passes for location: Hong Kong

Rise time Rise Azimuth (degrees) Set time Set Azimuth (degrees) Duration Max altitude (degrees)

No matching passes for this satellites